STARLINK-32298, 61525

Orbit data source: Space-Track

STARLINK-32298, 61525 is a payload satellite owned by SpaceX/Seattle (US) in LEO that was launched on Tue, 15 Oct 2024 UTC via an FALCON 9 launch vehicle from the Air Force Eastern Test Range (AFETR). Payload-class satellites include a variety of spacecraft equipped with specific instruments for various scientific and technological missions. These include communications satellites like Starlink; space stations such as the ISS; scientific satellites like the Hubble; Earth observation satellites from companies like Planet Labs, Umbra, and HawkEye 360; GPS; miniature CubeSats for education and research; and military/defense satellites.

Loading next visibility...
Identifier
61525, 2024-183S
Orbit
LEO
Country
Flag of USUS
Related business
Manufacturer
SpaceX/Seattle
Mission
Operational Commercial Communications
Bus & Motor
STARLINK V2M, Unknown motor
Mass
730 kg wet, ~700 kg dry
Launch date (UTC)
2024-10-15 (1 year ago)
Launch vehicle
FALCON 9
Launch site
Air Force Eastern Test Range (AFETR)
Object type
Payload
Rocket body
Debris
Shape & HBR
Box + 2 Pan, 17.7 m
Radar Cross Section
33.884 m², Large (>1 m²)

Expand to show TLE details & history
Last TLE update: 1 day ago

TLE from 1 day ago
0 STARLINK-32298
1 61525U 24183S   25348.82280618 -.00001363  00000-0 -33908-4 0  9996
2 61525  53.1584 176.3022 0001561  96.6073 263.5106 15.30177153 66662
Epoch: 2025-12-14T19:44Z
TLE epoch observation values (Epoch: 2025-12-14T19:44:50.453Z)
Latitude
-0°
Longitude
156.36178°
Altitude
476.304 km
Speed
7.629 km/s
True Right ascension
11h 45m 12s
True Declination
0° 00' 00"
Sunlit
Object was in daylight at epoch
Visualization orbit readout
Latitude
Unknown
Longitude
Unknown
Altitude
Unknown
Speed
Unknown
Apparent Right ascension
Unknown
Apparent Declination
Unknown
Sunlit
N/A
Visualization observer readout
Local Sidereal Time
18:07:57
Azimuth
Unknown
Elevation
Unknown
Doppler factor
Unknown
Orbital elements
Apogee altitude
476.61 km
Perigee altitude
474.47 km
Semi-major axis
6,853.677 km
Eccentricity
0.00016
Inclination
53.1584°
RAAN
176.3022°
Arg. of periapsis
96.6073°
True anomaly
263.49283°
Mean anomaly
263.5106°
Eccentric anomaly
263.50171°
Mean motion
3.82523 °/min
Orbital period
94.11 mins
BSTAR
-0.000033908
Loading maneuver chart data...
Computing Atmospheric mass density...
Loading historical data...
Loading historical data...
Loading historical data...
Loading historical data...
Loading historical data...
Loading historical data...
Loading historical data...

Documentation

Showing up to 5 results
|